Terminal Aerodrome Forecast
Issued by NWS

Home | Current Version | Previous Version | Text Only | Print | Product List | Glossary On
Versions: 1 2 3 4 5 6 7 8 9 10 11 12 13 14 15 16 17
000
FTUS45 KTFX 200521
TAFCTB
TAF
KCTB 200521Z 2006/2106 23011KT P6SM SCT100 BKN180 WS020/26035KT
     FM201800 22010G18KT P6SM SCT050 BKN080 WS020/25030KT=

USA.gov is the U.S. government's official web portal to all federal, state and local government web resources and services.